Location: Arroyo de Fuente Vieja
(40.4902°N, 4.1175°W)
Time: 14:15:22
(UTC+00:00)

USA 229 - Pass Details

Date: 18 April 2024
Orbit: 890 x 1322 km, 63.4° (Epoch: 18 May)

Event Time Altitude Azimuth Distance (km) Brightness Sun altitude
Rises 19:49:59 0° 178° (S) 3,498 6.1 -9.9°
Reaches altitude 10° 19:52:46 10° 166° (SSE) 2,587 5.4 -10.4°
Maximum altitude 19:57:43 27° 110° (ESE) 1,718 4.2 -11.2°
Drops below altitude 10° 20:02:58 10° 55° (NE) 2,771 5.6 -12.1°
Sets 20:06:03 0° 44° (NE) 3,796 6.4 -12.7°
